Regional Weather Roundup
Issued by NWS Charleston, SC

Current Version | Previous Version | Graphics & Text | Print | Product List | Glossary On
Versions: 1 2 3 4 5 6 7 8 9 10 11 12 13 14 15 16 17 18 19 20 21 22 23 24 25 26 27 28 29 30 31 32 33 34 35 36 37 38 39 40 41 42 43 44 45 46 47 48 49 50
000 ASUS42 KCHS 171427 RWRCHS REGIONAL WEATHER ROUNDUP NATIONAL WEATHER SERVICE CHARLESTON SC 1000 AM EDT TUE OCT 17 2017 NOTE: "FAIR" INDICATES FEW OR NO CLOUDS BELOW 12,000 FEET WITH NO SIGNIFICANT WEATHER AND/OR OBSTRUCTIONS TO VISIBILITY. NOT ALL STATIONS ARE QUALITY CONTROLLED. USE DATA WITH CAUTION... ESPECIALLY DEWPOINT OBSERVATIONS. SCZ027-030-031-034>040-042>050-171500- ...SOUTHEAST SOUTH CAROLINA... CITY SKY/WX TMP DP RH WIND PRES REMARKS N CHARLESTON CLOUDY 55 45 68 NE16 30.28R WATERFRONT PRK NOT AVBL JOHNS ISLAND FAIR 59 46 63 N16G23 30.27R PINOPOLIS N/A 55 48 76 NE21 30.20R MONCKS CORNER FAIR 54 41 62 NE9G16 30.30R SUMMERVILLE FAIR 55 43 62 N12 30.31R BEAUFORT MCAS PTSUNNY 58 47 66 NE9 30.27R BEAUFORT ARPT FAIR 59 46 63 NE24 30.27R HILTON HEAD IS NOT AVBL WALTERBORO MOSUNNY 54 41 62 NE8G16 30.31R ALLENDALE N/A 59 41 51 CALM N/A ...SOUTHERN MIDLANDS AND PEE DEE... CITY SKY/WX TMP DP RH WIND PRES REMARKS GEORGETOWN FAIR 54 43 66 N12G18 30.29R KINGSTREE FAIR 55 39 54 N10 30.32S ORANGEBURG SUNNY 57 40 52 NE10 30.32R BARNWELL N/A 61 41 48 NE15 30.32R AIKEN FAIR 57 39 51 NE13 30.37R MANNING DRZL/FOG 55 43 62 MISG 30.31S VSB 1 COLUMBIA MOSUNNY 58 42 55 NE8 30.34R SUMTER MOSUNNY 57 39 51 NE15G25 30.31R FLORENCE CLOUDY 56 42 59 NE12 30.33R MYRTLE BEACH CLOUDY 54 44 69 N15 30.30R N MYRTLE BEACH MOSUNNY 55 43 63 N9 30.28R $$ GAZ063-065-086>088-099>101-113>116-118-119-134>141-150-171500- ...SOUTHEAST GEORGIA... CITY SKY/WX TMP DP RH WIND PRES REMARKS SAVANNAH ARPT CLOUDY 57 47 69 N12 30.26R HUNTER AAF CLOUDY 60 45 58 NE16 30.22R FORT STEWART CLOUDY 57 46 68 N12G17 30.24R STATESBORO MOSUNNY 59 40 49 NE9G17 30.30R SYLVANIA MOSUNNY 58 46 64 NE12G22 30.31R CLAXTON FAIR 60 44 55 N12G20 30.29R ...CSRA...CENTRAL AND FAR SOUTHEAST GEORGIA... CITY SKY/WX TMP DP RH WIND PRES REMARKS THOMSON SUNNY 58 39 49 SE16G23 30.40R AUGUSTA-BUSH SUNNY 59 44 57 NE13 30.33R AUGUSTA-DANIEL SUNNY 59 42 53 NE13G18 30.34R SWAINSBORO FAIR 59 43 55 NE16 30.32R VIDALIA SUNNY 61 43 51 E18G26 30.30R EASTMAN FAIR 63 30 28 E13G22 30.33R HAZLEHURST FAIR 61 32 34 E12G18 30.27R ALMA MOSUNNY 59 46 62 NE10 30.25R WAYCROSS CLOUDY 61 46 59 NE12G17 30.24R JESUP NOT AVBL BAXLEY FAIR 59 41 51 NE17G25 30.26R BRUNSWICK CLOUDY 64 54 68 N14G21 30.22R SAINT SIMONS CLOUDY 68 59 73 N21G29 30.19R $$ SCZ027-028-034-036>038-045-046-048>050-GAZ119-141-171500- ...LAKE AND SUPPLEMENTAL COASTAL OBSERVATIONS... STATION/POSITION TIME TEMP WIND PRES WAVE SWELL AIR SEA DIR/SP/G HT/PER HT/PER/DIR (UTC) (F) (DEG/KT/KT) (MB) (FT/S) (FT/S/D) WINYAH BAY 1345 55 20/ 10 1025.0R LAKE MURRAY 1420 57 40/ 5/ 9 1027.1 ACE BASIN NERRS 1345 57 10/ 6 1025.0R FORT PULASKI 1400 61 78 30/ 18/ 23 1024.4 SAPELO ISLAND 1400 66 30/ 14 1023.0 $$ ANZ835-935-AMZ111-154-330-350-352-354-370-450-454-472-171500- ...C-MAN AND BUOY OBSERVATIONS... STATION/POSITION TIME TEMP WIND PRES WAVE SWELL AIR SEA DIR/SP/G HT/PER HT/PER/DIR (UTC) (F) (DEG/KT/KT) (MB) (FT/S) (FT/S/D) BUOY 41004 1410 68 80 30/ 25/ 31 1022.0 BUOY 41008 1350 69 79 40/ 25/ 31 1021.3R 8/ 6 2/130/11 FOLLY BEACH CMAN 1400 59 10/ 22/ 24 1025.0R CAPERS NEARSHORE 1408 58 76 30/ 21/ 31 1023.7R FRIPP NEARSHORE 1408 63 30/ 21/ 27 N/A STATION/POSITION TIME TEMP WIND PRES WAVE SWELL AIR SEA DIR/SP/G HT/PER HT/PER/DIR (UTC) (F) (DEG/KT/KT) (MB) (FT/S) (FT/S/D) 5E ST. MARYS GA 1400 80 N/A 7/ 6 2/ 90/11 FRYING PAN BUOY 1410 66 77 30/ 25/ 31 1022.8 BUOY 41025 1350 65 81 20/ 25/ 29 1022.8R 9/ 8 5/ 10/17 CAPE LOOKOUT NC 1400 62 10/ 18/ 22 1024.0R BUOY 41002 1350 75 79 40/ 25/ 31 1017.2R 14/ 9 BUOY 41010 NOT AVBL ST AUGUSTINE FL 1400 75 80 20/ 25/ 28 1019.8R $$

USA.gov is the U.S. government's official web portal to all federal, state and local government web resources and services.